Simultaneous Nadir Overpasses (SNOs) Predictions

Prediction of SNOs between AQUA and NOAA-19 Satellite Orbit:

Table of predicted SNOs for the next 14.0 days since TLE Epoch: 8/9/2013
Index Date (AQUA) Time (AQUA) Lat,Lon (AQUA) SZA (AQUA ) Date (NOAA-19) Time (NOAA-19) Lat,Lon (NOAA-19) SZA (NOAA-19 ) Distance(km) Time Diff (sec)
1 08/10/2013 17:04:47 -56.16, 115.37 138.62 08/10/2013 17:04:45 -56.15, 115.39 138.62 1.14 2
2 08/12/2013 21:49:12 -56.60, 44.05 137.56 08/12/2013 21:49:09 -56.59, 44.07 137.56 1.25 3
3 08/15/2013 02:33:35 -56.93, -27.21 136.57 08/15/2013 02:33:31 -56.93, -27.19 136.57 1.58 4
4 08/17/2013 07:17:57 -57.22, -98.45 135.60 08/17/2013 07:17:52 -57.22, -98.42 135.61 2.14 5
5 08/19/2013 12:02:37 -58.57,-170.32 133.65 08/19/2013 12:02:32 -58.58,-170.34 133.65 1.50 5




NCC Satellite Simultaneous Nadir Overpasses (SNOs) Prediction Service
